Time,TemperatureF,DewpointF,PressureIn,WindDirection,WindDirectionDegrees,WindSpeedMPH,WindSpeedGustMPH,Humidity,HourlyPrecipIn,Conditions,Clouds,dailyrainin,SolarRadiationWatts/m^2,SoftwareType,DateUTC
2013-04-12 00:00:00,62.4,60.3,29.73,South,174,2.0,19.0,93,0.27,,---,0.34,0.00,VWS V14.01,2013-04-12 04:00:00,
2013-04-12 00:01:00,62.4,60.3,29.73,WSW,243,0.0,19.0,93,0.27,,---,0.34,0.00,VWS V14.01,2013-04-12 04:01:00,
2013-04-12 00:06:00,62.5,60.8,29.72,SSW,209,7.0,10.0,94,0.27,,---,0.00,0.00,VWS V14.01,2013-04-12 04:06:00,
2013-04-12 00:11:00,62.5,60.8,29.72,SW,225,2.0,13.0,94,0.27,,---,0.00,0.00,VWS V14.01,2013-04-12 04:11:00,
2013-04-12 00:16:00,62.4,60.7,29.72,WSW,244,0.0,21.0,94,0.27,,---,0.00,0.00,VWS V14.01,2013-04-12 04:16:00,
2013-04-12 00:21:00,62.4,60.7,29.72,ESE,102,0.0,21.0,94,0.27,,---,0.00,0.00,VWS V14.01,2013-04-12 04:21:00,
2013-04-12 00:26:00,62.5,60.8,29.72,ESE,104,0.0,21.0,94,0.27,,---,0.00,0.00,VWS V14.01,2013-04-12 04:26:00,
2013-04-12 00:30:00,62.5,60.8,29.71,SSE,153,11.0,21.0,94,0.27,,---,0.00,0.00,VWS V14.01,2013-04-12 04:30:00,
2013-04-12 00:31:00,62.5,60.8,29.72,South,169,11.0,21.0,94,0.27,,---,0.00,0.00,VWS V14.01,2013-04-12 04:31:00,
2013-04-12 00:36:00,62.5,60.8,29.71,SSE,162,11.0,13.0,94,0.03,,---,0.00,0.00,VWS V14.01,2013-04-12 04:36:00,
2013-04-12 00:42:00,62.6,60.8,29.71,SSW,192,5.0,13.0,94,0.03,,---,0.00,0.00,VWS V14.01,2013-04-12 04:42:00,
2013-04-12 00:47:00,62.6,60.8,29.70,SW,217,9.0,13.0,94,0.03,,---,0.00,0.00,VWS V14.01,2013-04-12 04:47:00,
2013-04-12 00:52:00,62.7,61.0,29.70,South,170,5.0,13.0,94,0.03,,---,0.00,0.00,VWS V14.01,2013-04-12 04:52:00,
2013-04-12 00:57:00,62.8,61.3,29.70,South,173,4.0,17.0,95,0.03,,---,0.00,0.00,VWS V14.01,2013-04-12 04:57:00,
2013-04-12 01:00:00,62.9,61.5,29.70,WSW,251,7.0,19.0,95,0.03,,---,0.00,0.00,VWS V14.01,2013-04-12 05:00:00,
2013-04-12 01:02:00,62.9,61.5,29.70,South,182,15.0,19.0,95,0.03,,---,0.00,0.00,VWS V14.01,2013-04-12 05:02:00,
2013-04-12 01:07:00,63.0,61.5,29.70,South,178,10.0,19.0,95,0.01,,---,0.01,0.00,VWS V14.01,2013-04-12 05:07:00,
2013-04-12 01:12:00,63.0,61.5,29.69,SSW,197,7.0,19.0,95,0.01,,---,0.01,0.00,VWS V14.01,2013-04-12 05:12:00,
2013-04-12 01:17:00,63.1,61.3,29.69,SSW,192,6.0,19.0,94,0.01,,---,0.01,0.00,VWS V14.01,2013-04-12 05:17:00,
2013-04-12 01:22:00,63.2,61.5,29.68,South,185,12.0,19.0,94,0.01,,---,0.01,0.00,VWS V14.01,2013-04-12 05:22:00,
2013-04-12 01:27:00,63.2,61.5,29.67,SSE,165,6.0,19.0,94,0.03,,---,0.03,0.00,VWS V14.01,2013-04-12 05:27:00,
2013-04-12 01:30:00,63.3,61.5,29.67,ESE,112,0.0,19.0,94,0.04,,---,0.04,0.00,VWS V14.01,2013-04-12 05:30:00,
2013-04-12 01:32:00,63.3,61.5,29.67,ESE,112,0.0,19.0,94,0.04,,---,0.04,0.00,VWS V14.01,2013-04-12 05:32:00,
2013-04-12 01:37:00,63.3,61.5,29.67,South,169,5.0,24.0,94,0.04,,---,0.04,0.00,VWS V14.01,2013-04-12 05:37:00,
2013-04-12 01:43:00,63.4,62.0,29.66,SSE,168,4.0,24.0,95,0.05,,---,0.05,0.00,VWS V14.01,2013-04-12 05:43:00,
2013-04-12 01:48:00,63.4,62.0,29.66,South,172,6.0,24.0,95,0.07,,---,0.07,0.00,VWS V14.01,2013-04-12 05:48:00,
2013-04-12 01:53:00,63.4,62.0,29.66,SE,146,4.0,24.0,95,0.07,,---,0.07,0.00,VWS V14.01,2013-04-12 05:53:00,
2013-04-12 01:58:00,63.5,62.0,29.66,South,169,6.0,24.0,95,0.09,,---,0.09,0.00,VWS V14.01,2013-04-12 05:58:00,
2013-04-12 02:00:00,63.4,62.0,29.66,SSE,153,4.0,24.0,95,0.11,,---,0.11,0.00,VWS V14.01,2013-04-12 06:00:00,
2013-04-12 02:03:00,63.4,62.0,29.66,South,171,10.0,10.0,95,0.11,,---,0.11,0.00,VWS V14.01,2013-04-12 06:03:00,
2013-04-12 02:08:00,63.5,61.8,29.67,South,190,7.0,20.0,94,0.13,,---,0.13,0.00,VWS V14.01,2013-04-12 06:08:00,
2013-04-12 02:13:00,63.5,61.8,29.66,SW,231,5.0,20.0,94,0.14,,---,0.14,0.00,VWS V14.01,2013-04-12 06:13:00,
2013-04-12 02:18:00,63.4,61.7,29.65,SSW,196,3.0,20.0,94,0.15,,---,0.15,0.00,VWS V14.01,2013-04-12 06:18:00,
2013-04-12 02:23:00,63.4,61.7,29.66,SW,222,6.0,20.0,94,0.19,,---,0.19,0.00,VWS V14.01,2013-04-12 06:23:00,
2013-04-12 02:28:00,63.4,62.0,29.70,WSW,239,20.0,20.0,95,0.24,,---,0.24,0.00,VWS V14.01,2013-04-12 06:28:00,
2013-04-12 02:30:00,62.3,60.0,29.72,WSW,257,14.0,20.0,92,0.35,,---,0.35,0.00,VWS V14.01,2013-04-12 06:30:00,
2013-04-12 02:33:00,61.8,59.2,29.70,SSW,197,8.0,14.0,91,0.35,,---,0.39,0.00,VWS V14.01,2013-04-12 06:33:00,
2013-04-12 02:38:00,60.4,57.8,29.70,SW,216,6.0,14.0,91,0.57,,---,0.61,0.00,VWS V14.01,2013-04-12 06:38:00,
2013-04-12 02:44:00,59.6,57.3,29.71,SSW,211,4.0,14.0,92,0.72,,---,0.76,0.00,VWS V14.01,2013-04-12 06:44:00,
2013-04-12 02:49:00,59.0,57.0,29.70,SSW,205,0.0,14.0,93,0.85,,---,0.89,0.00,VWS V14.01,2013-04-12 06:49:00,
2013-04-12 02:54:00,58.5,56.5,29.70,SW,219,3.0,14.0,93,0.91,,---,0.95,0.00,VWS V14.01,2013-04-12 06:54:00,
2013-04-12 02:59:00,58.1,56.1,29.69,SW,233,2.0,14.0,93,0.97,,---,1.01,0.00,VWS V14.01,2013-04-12 06:59:00,
2013-04-12 03:00:00,57.8,55.8,29.68,SW,225,3.0,14.0,93,1.00,,---,1.04,0.00,VWS V14.01,2013-04-12 07:00:00,
2013-04-12 03:04:00,57.7,55.7,29.67,SW,229,0.0,4.0,93,0.93,,---,1.04,0.00,VWS V14.01,2013-04-12 07:04:00,
2013-04-12 03:09:00,57.4,55.7,29.67,SSW,211,6.0,6.0,94,0.95,,---,1.06,0.00,VWS V14.01,2013-04-12 07:09:00,
2013-04-12 03:14:00,57.2,55.5,29.69,SW,216,3.0,6.0,94,0.97,,---,1.08,0.00,VWS V14.01,2013-04-12 07:14:00,
2013-04-12 03:19:00,57.1,55.4,29.67,SSE,163,0.0,6.0,94,1.02,,---,1.13,0.00,VWS V14.01,2013-04-12 07:19:00,
2013-04-12 03:24:00,57.0,55.3,29.68,SW,221,0.0,6.0,94,1.05,,---,1.16,0.00,VWS V14.01,2013-04-12 07:24:00,
2013-04-12 03:29:00,56.9,55.5,29.69,SSW,200,0.0,6.0,95,1.07,,---,1.18,0.00,VWS V14.01,2013-04-12 07:29:00,
2013-04-12 03:30:00,56.8,55.4,29.70,SSW,200,0.0,6.0,95,1.08,,---,1.19,0.00,VWS V14.01,2013-04-12 07:30:00,
2013-04-12 03:34:00,56.8,55.4,29.70,SSW,200,0.0,0.0,95,0.85,,---,1.20,0.00,VWS V14.01,2013-04-12 07:34:00,
2013-04-12 03:40:00,56.8,55.4,29.68,SSW,200,0.0,2.0,95,0.87,,---,1.22,0.00,VWS V14.01,2013-04-12 07:40:00,
2013-04-12 03:45:00,56.8,55.4,29.67,SSW,200,0.0,2.0,95,0.88,,---,1.23,0.00,VWS V14.01,2013-04-12 07:45:00,
2013-04-12 03:50:00,56.8,55.4,29.66,ESE,103,1.0,2.0,95,0.89,,---,1.24,0.00,VWS V14.01,2013-04-12 07:50:00,
2013-04-12 03:55:00,56.7,55.3,29.66,ENE,74,6.0,6.0,95,0.89,,---,1.24,0.00,VWS V14.01,2013-04-12 07:55:00,
2013-04-12 04:00:00,56.7,55.3,29.66,East,84,0.0,6.0,95,0.89,,---,1.24,0.00,VWS V14.01,2013-04-12 08:00:00,
2013-04-12 04:05:00,56.7,55.3,29.65,East,85,0.0,0.0,95,0.20,,---,1.24,0.00,VWS V14.01,2013-04-12 08:05:00,
2013-04-12 04:10:00,56.7,55.3,29.66,SW,227,0.0,2.0,95,0.21,,---,1.25,0.00,VWS V14.01,2013-04-12 08:10:00,
2013-04-12 04:15:00,56.6,55.2,29.65,SW,227,0.0,2.0,95,0.21,,---,1.25,0.00,VWS V14.01,2013-04-12 08:15:00,
2013-04-12 04:20:00,56.6,55.2,29.65,SW,227,0.0,2.0,95,0.22,,---,1.26,0.00,VWS V14.01,2013-04-12 08:20:00,
2013-04-12 04:25:00,56.6,55.5,29.64,SW,227,0.0,2.0,96,0.22,,---,1.26,0.00,VWS V14.01,2013-04-12 08:25:00,
2013-04-12 04:30:00,56.6,55.5,29.63,SW,227,0.0,2.0,96,0.22,,---,1.26,0.00,VWS V14.01,2013-04-12 08:30:00,
2013-04-12 04:35:00,56.6,55.5,29.63,West,263,0.0,1.0,96,0.07,,---,1.26,0.00,VWS V14.01,2013-04-12 08:35:00,
2013-04-12 04:40:00,56.5,55.1,29.64,North,355,0.0,4.0,95,0.08,,---,1.27,0.00,VWS V14.01,2013-04-12 08:40:00,
2013-04-12 04:45:00,56.5,55.1,29.64,North,355,0.0,4.0,95,0.08,,---,1.27,0.00,VWS V14.01,2013-04-12 08:45:00,
2013-04-12 04:50:00,56.4,55.3,29.66,SW,229,1.0,6.0,96,0.08,,---,1.27,0.00,VWS V14.01,2013-04-12 08:50:00,
2013-04-12 04:55:00,56.4,55.3,29.65,SSE,148,10.0,10.0,96,0.08,,---,1.27,0.00,VWS V14.01,2013-04-12 08:55:00,
2013-04-12 05:00:00,56.5,55.4,29.66,South,182,0.0,10.0,96,0.08,,---,1.27,0.00,VWS V14.01,2013-04-12 09:00:00,
2013-04-12 05:06:00,56.5,55.4,29.64,SSE,166,0.0,9.0,96,0.03,,---,1.27,0.00,VWS V14.01,2013-04-12 09:06:00,
2013-04-12 05:11:00,56.7,55.6,29.65,SSE,167,1.0,14.0,96,0.03,,---,1.27,0.00,VWS V14.01,2013-04-12 09:11:00,
2013-04-12 05:16:00,56.9,55.8,29.66,SSW,212,0.0,14.0,96,0.03,,---,1.27,0.00,VWS V14.01,2013-04-12 09:16:00,
2013-04-12 05:21:00,57.1,56.0,29.65,South,175,7.0,14.0,96,0.03,,---,1.27,0.00,VWS V14.01,2013-04-12 09:21:00,
2013-04-12 05:26:00,57.3,56.2,29.65,SSE,168,3.0,14.0,96,0.03,,---,1.27,0.00,VWS V14.01,2013-04-12 09:26:00,
2013-04-12 05:30:00,57.5,56.4,29.65,South,189,0.0,15.0,96,0.03,,---,1.27,0.00,VWS V14.01,2013-04-12 09:30:00,
2013-04-12 05:31:00,57.5,56.4,29.65,SSE,165,0.0,15.0,96,0.03,,---,1.27,0.00,VWS V14.01,2013-04-12 09:31:00,
2013-04-12 05:36:00,57.6,56.5,29.64,SSE,155,4.0,6.0,96,0.01,,---,1.27,0.00,VWS V14.01,2013-04-12 09:36:00,
2013-04-12 05:42:00,57.7,56.3,29.64,SSE,165,7.0,12.0,95,0.01,,---,1.27,0.00,VWS V14.01,2013-04-12 09:42:00,
2013-04-12 05:47:00,57.8,56.4,29.65,South,171,7.0,18.0,95,0.01,,---,1.27,0.00,VWS V14.01,2013-04-12 09:47:00,
2013-04-12 05:52:00,58.0,56.6,29.65,West,268,0.0,18.0,95,0.01,,---,1.27,0.00,VWS V14.01,2013-04-12 09:52:00,
2013-04-12 05:57:00,58.2,56.8,29.64,SW,219,3.0,18.0,95,0.01,,---,1.27,0.00,VWS V14.01,2013-04-12 09:57:00,
2013-04-12 06:00:00,58.3,56.6,29.64,South,170,0.0,18.0,94,0.01,,---,1.27,0.00,VWS V14.01,2013-04-12 10:00:00,
2013-04-12 06:02:00,58.3,56.9,29.64,South,174,5.0,18.0,95,0.01,,---,1.27,0.00,VWS V14.01,2013-04-12 10:02:00,
2013-04-12 06:07:00,58.4,56.7,29.64,SE,142,3.0,13.0,94,0.00,,---,1.27,0.00,VWS V14.01,2013-04-12 10:07:00,
2013-04-12 06:12:00,58.6,56.9,29.64,SSW,205,2.0,13.0,94,0.00,,---,1.27,0.00,VWS V14.01,2013-04-12 10:12:00,
2013-04-12 06:17:00,58.7,56.7,29.64,South,173,3.0,13.0,93,0.00,,---,1.27,0.00,VWS V14.01,2013-04-12 10:17:00,
2013-04-12 06:22:00,58.9,56.9,29.64,South,170,2.0,14.0,93,0.00,,---,1.27,0.00,VWS V14.01,2013-04-12 10:22:00,
2013-04-12 06:27:00,59.0,57.0,29.64,SW,219,0.0,14.0,93,0.00,,---,1.27,0.00,VWS V14.01,2013-04-12 10:27:00,
2013-04-12 06:30:00,59.0,57.0,29.64,SSW,202,2.0,14.0,93,0.00,,---,1.27,0.00,VWS V14.01,2013-04-12 10:30:00,
2013-04-12 06:33:00,59.0,57.0,29.64,SSW,202,0.0,2.0,93,0.00,,---,1.27,0.00,VWS V14.01,2013-04-12 10:33:00,
2013-04-12 06:38:00,59.1,57.1,29.64,SSE,168,5.0,8.0,93,0.00,,---,1.27,0.00,VWS V14.01,2013-04-12 10:38:00,
2013-04-12 06:43:00,59.1,57.1,29.64,SW,215,4.0,11.0,93,0.00,,---,1.27,0.00,VWS V14.01,2013-04-12 10:43:00,
2013-04-12 06:48:00,59.2,57.2,29.64,South,169,5.0,12.0,93,0.00,,---,1.27,0.00,VWS V14.01,2013-04-12 10:48:00,
2013-04-12 06:53:00,59.3,57.3,29.64,SSW,202,4.0,12.0,93,0.00,,---,1.27,0.00,VWS V14.01,2013-04-12 10:53:00,
2013-04-12 06:58:00,59.3,57.3,29.63,SE,133,10.0,12.0,93,0.03,,---,1.30,0.00,VWS V14.01,2013-04-12 10:58:00,
2013-04-12 07:00:00,59.4,57.4,29.63,South,171,12.0,16.0,93,0.05,,---,1.32,0.00,VWS V14.01,2013-04-12 11:00:00,
2013-04-12 07:03:00,59.4,57.4,29.63,SSE,149,5.0,18.0,93,0.05,,---,1.32,0.00,VWS V14.01,2013-04-12 11:03:00,
2013-04-12 07:08:00,59.4,57.4,29.64,South,175,12.0,18.0,93,0.08,,---,1.35,0.00,VWS V14.01,2013-04-12 11:08:00,
2013-04-12 07:13:00,59.4,57.4,29.64,South,185,11.0,26.0,93,0.09,,---,1.36,5.00,VWS V14.01,2013-04-12 11:13:00,
2013-04-12 07:18:00,59.4,57.4,29.64,South,184,5.0,26.0,93,0.09,,---,1.36,7.00,VWS V14.01,2013-04-12 11:18:00,
2013-04-12 07:23:00,59.5,57.5,29.64,South,171,5.0,26.0,93,0.09,,---,1.36,11.00,VWS V14.01,2013-04-12 11:23:00,
2013-04-12 07:28:00,59.4,57.4,29.64,SSW,210,0.0,26.0,93,0.09,,---,1.36,7.00,VWS V14.01,2013-04-12 11:28:00,
2013-04-12 07:30:00,59.4,57.7,29.65,SSE,165,0.0,26.0,94,0.09,,---,1.36,9.00,VWS V14.01,2013-04-12 11:30:00,
2013-04-12 07:33:00,59.4,57.7,29.65,SSW,203,2.0,4.0,94,0.09,,---,1.36,9.00,VWS V14.01,2013-04-12 11:33:00,
2013-04-12 07:38:00,59.5,57.8,29.65,SSW,205,5.0,15.0,94,0.09,,---,1.36,11.00,VWS V14.01,2013-04-12 11:38:00,
2013-04-12 07:44:00,59.5,57.8,29.65,SW,235,0.0,15.0,94,0.09,,---,1.36,14.00,VWS V14.01,2013-04-12 11:44:00,
2013-04-12 07:49:00,59.5,57.8,29.65,SSE,158,2.0,15.0,94,0.10,,---,1.37,18.00,VWS V14.01,2013-04-12 11:49:00,
2013-04-12 07:54:00,59.5,57.8,29.65,SE,146,0.0,15.0,94,0.10,,---,1.37,14.00,VWS V14.01,2013-04-12 11:54:00,
2013-04-12 07:59:00,59.4,57.7,29.65,SSE,157,0.0,15.0,94,0.10,,---,1.37,14.00,VWS V14.01,2013-04-12 11:59:00,
2013-04-12 08:00:00,59.4,57.7,29.65,SSE,157,0.0,15.0,94,0.10,,---,1.37,12.00,VWS V14.01,2013-04-12 12:00:00,
2013-04-12 08:04:00,59.4,57.7,29.65,South,172,5.0,5.0,94,0.05,,---,1.37,11.00,VWS V14.01,2013-04-12 12:04:00,
2013-04-12 08:09:00,59.4,57.7,29.65,South,173,3.0,7.0,94,0.05,,---,1.37,16.00,VWS V14.01,2013-04-12 12:09:00,
2013-04-12 08:14:00,59.4,57.7,29.65,South,173,0.0,7.0,94,0.05,,---,1.37,39.00,VWS V14.01,2013-04-12 12:14:00,
2013-04-12 08:19:00,59.4,57.7,29.65,SE,139,0.0,7.0,94,0.05,,---,1.37,65.00,VWS V14.01,2013-04-12 12:19:00,
2013-04-12 08:24:00,59.4,57.7,29.66,SSE,162,0.0,7.0,94,0.05,,---,1.37,77.00,VWS V14.01,2013-04-12 12:24:00,
2013-04-12 08:29:00,59.4,57.7,29.66,SSE,162,1.0,7.0,94,0.05,,---,1.37,25.00,VWS V14.01,2013-04-12 12:29:00,
2013-04-12 08:30:00,59.4,58.0,29.66,SSE,162,0.0,7.0,95,0.05,,---,1.37,58.00,VWS V14.01,2013-04-12 12:30:00,
2013-04-12 08:34:00,59.4,57.7,29.66,South,180,0.0,5.0,94,0.01,,---,1.37,30.00,VWS V14.01,2013-04-12 12:34:00,
2013-04-12 08:39:00,59.4,58.0,29.66,South,180,0.0,5.0,95,0.02,,---,1.38,54.00,VWS V14.01,2013-04-12 12:39:00,
2013-04-12 08:44:00,59.5,58.1,29.66,SE,133,0.0,5.0,95,0.02,,---,1.38,329.00,VWS V14.01,2013-04-12 12:44:00,
2013-04-12 08:49:00,59.7,58.3,29.67,SSE,167,0.0,5.0,95,0.02,,---,1.38,120.00,VWS V14.01,2013-04-12 12:49:00,
2013-04-12 08:55:00,59.9,58.5,29.66,SSE,150,0.0,5.0,95,0.02,,---,1.38,107.00,VWS V14.01,2013-04-12 12:55:00,
2013-04-12 09:00:00,60.0,58.6,29.67,South,178,0.0,5.0,95,0.02,,---,1.38,76.00,VWS V14.01,2013-04-12 13:00:00,
2013-04-12 09:05:00,59.9,58.5,29.67,SSW,209,0.0,5.0,95,0.02,,---,1.39,53.00,VWS V14.01,2013-04-12 13:05:00,
2013-04-12 09:10:00,59.8,58.4,29.68,WSW,241,0.0,6.0,95,0.03,,---,1.40,46.00,VWS V14.01,2013-04-12 13:10:00,
2013-04-12 09:15:00,59.9,58.5,29.67,WSW,241,0.0,6.0,95,0.03,,---,1.40,163.00,VWS V14.01,2013-04-12 13:15:00,
2013-04-12 09:20:00,60.2,59.1,29.68,SW,222,5.0,6.0,96,0.03,,---,1.40,323.00,VWS V14.01,2013-04-12 13:20:00,
2013-04-12 09:25:00,60.5,59.4,29.68,SW,222,4.0,6.0,96,0.03,,---,1.40,123.00,VWS V14.01,2013-04-12 13:25:00,
2013-04-12 09:30:00,60.5,59.4,29.68,West,263,0.0,6.0,96,0.03,,---,1.40,95.00,VWS V14.01,2013-04-12 13:30:00,
2013-04-12 09:35:00,60.1,58.7,29.68,WSW,258,0.0,9.0,95,0.03,,---,1.40,197.00,VWS V14.01,2013-04-12 13:35:00,
2013-04-12 09:40:00,59.9,58.5,29.68,WSW,246,5.0,9.0,95,0.03,,---,1.40,185.00,VWS V14.01,2013-04-12 13:40:00,
2013-04-12 09:45:00,59.8,58.1,29.68,SW,220,0.0,9.0,94,0.03,,---,1.40,227.00,VWS V14.01,2013-04-12 13:45:00,
2013-04-12 09:50:00,59.8,58.1,29.68,SW,236,3.0,9.0,94,0.03,,---,1.40,599.00,VWS V14.01,2013-04-12 13:50:00,
2013-04-12 09:55:00,60.3,58.9,29.68,West,264,1.0,9.0,95,0.03,,---,1.40,619.00,VWS V14.01,2013-04-12 13:55:00,
2013-04-12 10:00:00,60.7,59.3,29.69,SW,229,3.0,9.0,95,0.03,,---,1.40,102.00,VWS V14.01,2013-04-12 14:00:00,
2013-04-12 10:05:00,60.7,58.7,29.69,SW,236,0.0,9.0,93,0.01,,---,1.40,849.00,VWS V14.01,2013-04-12 14:05:00,
2013-04-12 10:11:00,61.1,59.1,29.69,WSW,244,2.0,9.0,93,0.01,,---,1.40,211.00,VWS V14.01,2013-04-12 14:11:00,
2013-04-12 10:16:00,61.3,58.3,29.69,SW,224,0.0,9.0,90,0.01,,---,1.40,120.00,VWS V14.01,2013-04-12 14:16:00,
2013-04-12 10:21:00,61.3,58.3,29.70,SW,221,0.0,9.0,90,0.01,,---,1.40,114.00,VWS V14.01,2013-04-12 14:21:00,
2013-04-12 10:26:00,61.3,58.0,29.70,SSW,211,2.0,9.0,89,0.01,,---,1.40,97.00,VWS V14.01,2013-04-12 14:26:00,
2013-04-12 10:30:00,61.5,57.9,29.70,SW,221,0.0,9.0,88,0.01,,---,1.40,262.00,VWS V14.01,2013-04-12 14:30:00,
2013-04-12 10:32:00,61.4,57.8,29.70,SW,222,3.0,9.0,88,0.01,,---,1.40,262.00,VWS V14.01,2013-04-12 14:32:00,
2013-04-12 10:37:00,62.1,58.5,29.70,SW,223,0.0,2.0,88,0.00,,---,1.40,842.00,VWS V14.01,2013-04-12 14:37:00,
2013-04-12 10:42:00,63.1,58.8,29.70,West,269,4.0,5.0,86,0.00,,---,1.40,886.00,VWS V14.01,2013-04-12 14:42:00,
2013-04-12 10:47:00,63.6,58.7,29.70,WSW,256,5.0,8.0,84,0.00,,---,1.40,153.00,VWS V14.01,2013-04-12 14:47:00,
2013-04-12 10:52:00,63.5,57.9,29.70,West,266,3.0,9.0,82,0.00,,---,1.40,290.00,VWS V14.01,2013-04-12 14:52:00,
2013-04-12 10:57:00,63.3,57.7,29.70,SSW,196,2.0,12.0,82,0.00,,---,1.40,253.00,VWS V14.01,2013-04-12 14:57:00,
2013-04-12 11:00:00,63.5,56.9,29.71,SW,227,3.0,12.0,79,0.00,,---,1.40,1018.00,VWS V14.01,2013-04-12 15:00:00,
2013-04-12 11:02:00,63.5,56.9,29.70,WSW,242,3.0,12.0,79,0.00,,---,1.40,849.00,VWS V14.01,2013-04-12 15:02:00,
2013-04-12 11:07:00,64.1,57.8,29.71,SW,225,5.0,11.0,80,0.00,,---,1.40,933.00,VWS V14.01,2013-04-12 15:07:00,
2013-04-12 11:12:00,64.8,57.4,29.70,SW,214,4.0,11.0,77,0.00,,---,1.40,708.00,VWS V14.01,2013-04-12 15:12:00,
2013-04-12 11:17:00,65.8,58.0,29.70,WSW,254,4.0,11.0,76,0.00,,---,1.40,851.00,VWS V14.01,2013-04-12 15:17:00,
2013-04-12 11:22:00,66.2,58.0,29.70,West,259,0.0,11.0,75,0.00,,---,1.40,977.00,VWS V14.01,2013-04-12 15:22:00,
2013-04-12 11:28:00,66.9,59.1,29.71,West,281,3.0,11.0,76,0.00,,---,1.40,355.00,VWS V14.01,2013-04-12 15:28:00,
2013-04-12 11:30:00,66.4,57.9,29.71,WSW,247,5.0,11.0,74,0.00,,---,1.40,264.00,VWS V14.01,2013-04-12 15:30:00,
2013-04-12 11:33:00,66.4,57.9,29.72,WSW,247,4.0,5.0,74,0.00,,---,1.40,264.00,VWS V14.01,2013-04-12 15:33:00,
2013-04-12 11:38:00,65.5,57.7,29.72,NW,313,1.0,6.0,76,0.00,,---,1.40,236.00,VWS V14.01,2013-04-12 15:38:00,
2013-04-12 11:43:00,64.7,55.5,29.72,SSW,213,8.0,12.0,72,0.00,,---,1.40,360.00,VWS V14.01,2013-04-12 15:43:00,
2013-04-12 11:48:00,64.3,54.3,29.72,SSW,213,8.0,15.0,70,0.00,,---,1.40,309.00,VWS V14.01,2013-04-12 15:48:00,
2013-04-12 11:53:00,64.0,54.4,29.73,West,262,5.0,15.0,71,0.00,,---,1.40,323.00,VWS V14.01,2013-04-12 15:53:00,
2013-04-12 11:58:00,64.0,54.4,29.71,WSW,257,5.0,15.0,71,0.00,,---,1.40,895.00,VWS V14.01,2013-04-12 15:58:00,
2013-04-12 12:00:00,64.6,53.8,29.71,WSW,248,4.0,15.0,68,0.00,,---,1.40,849.00,VWS V14.01,2013-04-12 16:00:00,
2013-04-12 12:03:00,64.7,54.7,29.71,SSW,209,4.0,7.0,70,0.00,,---,1.40,849.00,VWS V14.01,2013-04-12 16:03:00,
2013-04-12 12:08:00,65.9,54.2,29.71,West,277,4.0,15.0,66,0.00,,---,1.40,1042.00,VWS V14.01,2013-04-12 16:08:00,
2013-04-12 12:13:00,66.2,54.5,29.71,WSW,242,6.0,15.0,66,0.00,,---,1.40,932.00,VWS V14.01,2013-04-12 16:13:00,
2013-04-12 12:18:00,66.7,53.7,29.71,SW,236,5.0,15.0,63,0.00,,---,1.40,902.00,VWS V14.01,2013-04-12 16:18:00,
2013-04-12 12:23:00,67.3,56.0,29.71,WNW,294,3.0,15.0,67,0.00,,---,1.40,911.00,VWS V14.01,2013-04-12 16:23:00,
2013-04-12 12:28:00,67.6,54.6,29.71,West,263,0.0,15.0,63,0.00,,---,1.40,919.00,VWS V14.01,2013-04-12 16:28:00,
2013-04-12 12:30:00,68.2,55.1,29.71,NNW,329,4.0,15.0,63,0.00,,---,1.40,930.00,VWS V14.01,2013-04-12 16:30:00,
2013-04-12 12:33:00,68.3,54.8,29.71,SW,217,0.0,5.0,62,0.00,,---,1.40,933.00,VWS V14.01,2013-04-12 16:33:00,
2013-04-12 12:38:00,68.7,55.6,29.71,West,261,1.0,10.0,63,0.00,,---,1.40,932.00,VWS V14.01,2013-04-12 16:38:00,
2013-04-12 12:43:00,69.1,54.2,29.71,WSW,238,3.0,10.0,59,0.00,,---,1.40,942.00,VWS V14.01,2013-04-12 16:43:00,
2013-04-12 12:48:00,68.9,54.9,29.71,West,272,7.0,13.0,61,0.00,,---,1.40,954.00,VWS V14.01,2013-04-12 16:48:00,
2013-04-12 12:53:00,69.0,55.0,29.71,SW,226,3.0,13.0,61,0.00,,---,1.40,958.00,VWS V14.01,2013-04-12 16:53:00,
2013-04-12 12:59:00,69.6,54.7,29.71,SW,221,0.0,13.0,59,0.00,,---,1.40,953.00,VWS V14.01,2013-04-12 16:59:00,
2013-04-12 13:00:00,70.0,55.0,29.70,SW,229,3.0,13.0,59,0.00,,---,1.40,965.00,VWS V14.01,2013-04-12 17:00:00,
2013-04-12 13:04:00,70.1,55.6,29.71,West,271,5.0,7.0,60,0.00,,---,1.40,967.00,VWS V14.01,2013-04-12 17:04:00,
2013-04-12 13:09:00,69.9,54.5,29.71,SW,236,5.0,12.0,58,0.00,,---,1.40,958.00,VWS V14.01,2013-04-12 17:09:00,
2013-04-12 13:14:00,69.7,54.3,29.71,West,263,3.0,12.0,58,0.00,,---,1.40,1062.00,VWS V14.01,2013-04-12 17:14:00,
2013-04-12 13:19:00,69.2,53.3,29.71,WSW,254,5.0,12.0,57,0.00,,---,1.40,962.00,VWS V14.01,2013-04-12 17:19:00,
2013-04-12 13:24:00,68.9,51.1,29.71,WSW,244,12.0,15.0,53,0.00,,---,1.40,954.00,VWS V14.01,2013-04-12 17:24:00,
2013-04-12 13:29:00,68.7,50.9,29.71,SW,231,4.0,16.0,53,0.00,,---,1.40,951.00,VWS V14.01,2013-04-12 17:29:00,
2013-04-12 13:30:00,68.8,51.5,29.71,WSW,252,1.0,16.0,54,0.00,,---,1.40,951.00,VWS V14.01,2013-04-12 17:30:00,
2013-04-12 13:34:00,68.9,53.5,29.71,SW,229,3.0,7.0,58,0.00,,---,1.40,951.00,VWS V14.01,2013-04-12 17:34:00,
2013-04-12 13:39:00,69.3,51.5,29.71,West,262,2.0,14.0,53,0.00,,---,1.40,953.00,VWS V14.01,2013-04-12 17:39:00,
2013-04-12 13:44:00,69.9,53.5,29.71,SSW,207,4.0,14.0,56,0.00,,---,1.40,949.00,VWS V14.01,2013-04-12 17:44:00,
2013-04-12 13:49:00,69.7,51.3,29.71,SW,232,6.0,15.0,52,0.00,,---,1.40,944.00,VWS V14.01,2013-04-12 17:49:00,
2013-04-12 13:54:00,69.3,51.5,29.71,West,265,11.0,16.0,53,0.00,,---,1.40,944.00,VWS V14.01,2013-04-12 17:54:00,
2013-04-12 14:00:00,69.1,49.7,29.71,WSW,250,3.0,16.0,50,0.00,,---,1.40,939.00,VWS V14.01,2013-04-12 18:00:00,
2013-04-12 14:05:00,69.4,50.0,29.71,SW,236,2.0,18.0,50,0.00,,---,1.40,937.00,VWS V14.01,2013-04-12 18:05:00,
2013-04-12 14:10:00,69.2,50.3,29.71,West,267,9.0,18.0,51,0.00,,---,1.40,933.00,VWS V14.01,2013-04-12 18:10:00,
2013-04-12 14:15:00,68.4,48.5,29.71,WSW,250,9.0,18.0,49,0.00,,---,1.40,932.00,VWS V14.01,2013-04-12 18:15:00,
2013-04-12 14:20:00,68.0,48.7,29.71,West,259,11.0,19.0,50,0.00,,---,1.40,928.00,VWS V14.01,2013-04-12 18:20:00,
2013-04-12 14:25:00,68.0,47.0,29.71,SW,235,12.0,19.0,47,0.00,,---,1.40,921.00,VWS V14.01,2013-04-12 18:25:00,
2013-04-12 14:30:00,67.6,45.5,29.72,WSW,240,9.0,19.0,45,0.00,,---,1.40,914.00,VWS V14.01,2013-04-12 18:30:00,
2013-04-12 15:00:00,67.3,43.5,29.71,WSW,254,9.0,20.0,42,0.00,,---,1.40,872.00,VWS V14.01,2013-04-12 19:00:00,
2013-04-12 15:26:00,67.2,43.4,29.70,West,264,6.0,19.0,42,0.00,,---,1.40,824.00,VWS V14.01,2013-04-12 19:26:00,
2013-04-12 15:27:00,67.3,44.7,29.70,WSW,251,7.0,19.0,44,0.00,,---,1.40,824.00,VWS V14.01,2013-04-12 19:27:00,
2013-04-12 15:30:00,67.8,43.9,29.70,SSE,165,5.0,19.0,42,0.00,,---,1.40,812.00,VWS V14.01,2013-04-12 19:30:00,
2013-04-12 15:32:00,67.8,43.9,29.70,SSW,209,4.0,19.0,42,0.00,,---,1.40,812.00,VWS V14.01,2013-04-12 19:32:00,
2013-04-12 15:37:00,68.1,44.8,29.70,SSW,206,0.0,15.0,43,0.00,,---,1.40,798.00,VWS V14.01,2013-04-12 19:37:00,
2013-04-12 15:42:00,68.9,46.1,29.70,WSW,247,1.0,15.0,44,0.00,,---,1.40,788.00,VWS V14.01,2013-04-12 19:42:00,
2013-04-12 15:47:00,69.3,44.0,29.70,SW,236,13.0,15.0,40,0.00,,---,1.40,777.00,VWS V14.01,2013-04-12 19:47:00,
2013-04-12 15:52:00,69.0,44.3,29.70,West,268,9.0,16.0,41,0.00,,---,1.40,763.00,VWS V14.01,2013-04-12 19:52:00,
2013-04-12 15:57:00,69.0,44.3,29.70,WSW,257,2.0,19.0,41,0.00,,---,1.40,751.00,VWS V14.01,2013-04-12 19:57:00,
2013-04-12 16:00:00,69.3,44.0,29.70,WSW,244,1.0,19.0,40,0.00,,---,1.40,738.00,VWS V14.01,2013-04-12 20:00:00,
2013-04-12 16:03:00,69.3,44.0,29.70,West,277,4.0,4.0,40,0.00,,---,1.40,738.00,VWS V14.01,2013-04-12 20:03:00,
2013-04-12 16:08:00,69.7,43.7,29.70,WNW,286,7.0,12.0,39,0.00,,---,1.40,724.00,VWS V14.01,2013-04-12 20:08:00,
2013-04-12 16:13:00,69.4,44.1,29.70,WSW,254,7.0,12.0,40,0.00,,---,1.40,708.00,VWS V14.01,2013-04-12 20:13:00,
2013-04-12 16:18:00,69.0,45.6,29.70,WSW,245,10.0,12.0,43,0.00,,---,1.40,693.00,VWS V14.01,2013-04-12 20:18:00,
2013-04-12 16:23:00,69.0,46.2,29.70,SW,223,10.0,12.0,44,0.00,,---,1.40,679.00,VWS V14.01,2013-04-12 20:23:00,
2013-04-12 16:28:00,69.2,45.8,29.70,WSW,238,8.0,12.0,43,0.00,,---,1.40,661.00,VWS V14.01,2013-04-12 20:28:00,
2013-04-12 16:30:00,69.1,46.9,29.71,NNW,329,3.0,12.0,45,0.00,,---,1.40,649.00,VWS V14.01,2013-04-12 20:30:00,
2013-04-12 16:33:00,69.1,46.9,29.70,NNW,337,7.0,7.0,45,0.00,,---,1.40,645.00,VWS V14.01,2013-04-12 20:33:00,
2013-04-12 16:38:00,68.9,45.5,29.71,West,264,4.0,11.0,43,0.00,,---,1.40,635.00,VWS V14.01,2013-04-12 20:38:00,
2013-04-12 16:43:00,68.5,44.5,29.71,SW,233,9.0,13.0,42,0.00,,---,1.40,621.00,VWS V14.01,2013-04-12 20:43:00,
2013-04-12 16:48:00,67.9,44.6,29.71,WSW,254,8.0,13.0,43,0.00,,---,1.40,605.00,VWS V14.01,2013-04-12 20:48:00,
2013-04-12 16:53:00,67.5,44.2,29.72,WNW,297,9.0,13.0,43,0.00,,---,1.40,589.00,VWS V14.01,2013-04-12 20:53:00,
2013-04-12 16:58:00,67.2,44.6,29.72,NNW,333,7.0,13.0,44,0.00,,---,1.40,575.00,VWS V14.01,2013-04-12 20:58:00,
2013-04-12 17:00:00,67.0,43.8,29.72,NW,315,9.0,15.0,43,0.00,,---,1.40,561.00,VWS V14.01,2013-04-12 21:00:00,
2013-04-12 17:03:00,66.9,44.9,29.72,WSW,250,13.0,16.0,45,0.00,,---,1.40,555.00,VWS V14.01,2013-04-12 21:03:00,
2013-04-12 17:08:00,66.2,43.7,29.72,WSW,248,7.0,16.0,44,0.00,,---,1.40,541.00,VWS V14.01,2013-04-12 21:08:00,
2013-04-12 17:13:00,66.2,44.2,29.73,WSW,257,12.0,16.0,45,0.00,,---,1.40,526.00,VWS V14.01,2013-04-12 21:13:00,
2013-04-12 17:18:00,65.9,42.2,29.72,WSW,256,14.0,18.0,42,0.00,,---,1.40,517.00,VWS V14.01,2013-04-12 21:18:00,
2013-04-12 17:23:00,65.6,42.5,29.72,South,187,6.0,18.0,43,0.00,,---,1.40,480.00,VWS V14.01,2013-04-12 21:23:00,
2013-04-12 17:29:00,65.8,40.8,29.72,West,263,7.0,18.0,40,0.00,,---,1.40,483.00,VWS V14.01,2013-04-12 21:29:00,
2013-04-12 17:30:00,65.9,39.6,29.73,West,279,6.0,18.0,38,0.00,,---,1.40,466.00,VWS V14.01,2013-04-12 21:30:00,
2013-04-12 17:34:00,65.9,39.6,29.73,WSW,257,11.0,13.0,38,0.00,,---,1.40,461.00,VWS V14.01,2013-04-12 21:34:00,
2013-04-12 17:39:00,65.9,38.9,29.73,WSW,255,7.0,15.0,37,0.00,,---,1.40,445.00,VWS V14.01,2013-04-12 21:39:00,
2013-04-12 17:44:00,66.0,39.7,29.73,WSW,247,11.0,15.0,38,0.00,,---,1.40,429.00,VWS V14.01,2013-04-12 21:44:00,
2013-04-12 17:49:00,66.1,41.7,29.73,WNW,286,5.0,15.0,41,0.00,,---,1.40,341.00,VWS V14.01,2013-04-12 21:49:00,
2013-04-12 17:54:00,66.0,42.3,29.73,NNW,329,4.0,15.0,42,0.00,,---,1.40,121.00,VWS V14.01,2013-04-12 21:54:00,
2013-04-12 17:59:00,65.7,42.0,29.73,WNW,287,7.0,15.0,42,0.00,,---,1.40,188.00,VWS V14.01,2013-04-12 21:59:00,
2013-04-12 18:00:00,65.4,41.1,29.74,West,261,1.0,15.0,41,0.00,,---,1.40,209.00,VWS V14.01,2013-04-12 22:00:00,
2013-04-12 18:04:00,65.3,41.6,29.74,NW,326,4.0,5.0,42,0.00,,---,1.40,197.00,VWS V14.01,2013-04-12 22:04:00,
2013-04-12 18:09:00,65.1,42.7,29.74,WSW,246,5.0,10.0,44,0.00,,---,1.40,186.00,VWS V14.01,2013-04-12 22:09:00,
2013-04-12 18:14:00,65.1,42.1,29.74,West,267,3.0,10.0,43,0.00,,---,1.40,72.00,VWS V14.01,2013-04-12 22:14:00,
2013-04-12 18:19:00,64.9,42.5,29.74,NW,311,5.0,12.0,44,0.00,,---,1.40,144.00,VWS V14.01,2013-04-12 22:19:00,
2013-04-12 18:24:00,64.5,42.1,29.74,WNW,296,4.0,12.0,44,0.00,,---,1.40,128.00,VWS V14.01,2013-04-12 22:24:00,
2013-04-12 18:29:00,64.3,43.1,29.74,WSW,252,11.0,13.0,46,0.00,,---,1.40,120.00,VWS V14.01,2013-04-12 22:29:00,
2013-04-12 18:30:00,64.2,43.0,29.74,SW,235,6.0,13.0,46,0.00,,---,1.40,160.00,VWS V14.01,2013-04-12 22:30:00,
2013-04-12 18:34:00,64.1,42.9,29.74,West,272,4.0,7.0,46,0.00,,---,1.40,163.00,VWS V14.01,2013-04-12 22:34:00,
2013-04-12 18:39:00,63.9,44.4,29.74,West,271,3.0,10.0,49,0.00,,---,1.40,72.00,VWS V14.01,2013-04-12 22:39:00,
2013-04-12 18:45:00,63.6,44.1,29.75,WNW,303,2.0,12.0,49,0.00,,---,1.40,120.00,VWS V14.01,2013-04-12 22:45:00,
2013-04-12 18:50:00,63.2,44.3,29.74,WSW,250,6.0,12.0,50,0.00,,---,1.40,142.00,VWS V14.01,2013-04-12 22:50:00,
2013-04-12 18:55:00,62.8,44.4,29.74,West,267,6.0,12.0,51,0.00,,---,1.40,72.00,VWS V14.01,2013-04-12 22:55:00,
2013-04-12 19:00:00,62.3,44.5,29.75,NW,305,5.0,12.0,52,0.00,,---,1.40,76.00,VWS V14.01,2013-04-12 23:00:00,
2013-04-12 19:05:00,62.1,43.8,29.75,West,263,4.0,7.0,51,0.00,,---,1.40,60.00,VWS V14.01,2013-04-12 23:05:00,
2013-04-12 19:10:00,61.8,43.5,29.75,West,260,6.0,11.0,51,0.00,,---,1.40,58.00,VWS V14.01,2013-04-12 23:10:00,
2013-04-12 19:15:00,61.6,43.8,29.75,West,275,6.0,11.0,52,0.00,,---,1.40,28.00,VWS V14.01,2013-04-12 23:15:00,
2013-04-12 19:20:00,61.3,43.5,29.75,NW,315,5.0,11.0,52,0.00,,---,1.40,35.00,VWS V14.01,2013-04-12 23:20:00,
2013-04-12 19:25:00,60.9,43.2,29.75,West,279,5.0,11.0,52,0.00,,---,1.40,19.00,VWS V14.01,2013-04-12 23:25:00,
2013-04-12 19:30:00,60.3,43.1,29.75,WSW,250,3.0,11.0,53,0.00,,---,1.40,19.00,VWS V14.01,2013-04-12 23:30:00,
2013-04-12 19:35:00,59.9,43.2,29.76,WNW,290,6.0,9.0,54,0.00,,---,1.40,14.00,VWS V14.01,2013-04-12 23:35:00,
2013-04-12 19:40:00,59.4,42.8,29.76,West,281,3.0,11.0,54,0.00,,---,1.40,12.00,VWS V14.01,2013-04-12 23:40:00,
2013-04-12 19:45:00,59.0,42.9,29.76,NW,315,3.0,11.0,55,0.00,,---,1.40,9.00,VWS V14.01,2013-04-12 23:45:00,
2013-04-12 19:50:00,58.5,42.4,29.76,West,270,5.0,11.0,55,0.00,,---,1.40,5.00,VWS V14.01,2013-04-12 23:50:00,
2013-04-12 19:55:00,58.0,42.9,29.76,WNW,289,4.0,11.0,57,0.00,,---,1.40,0.00,VWS V14.01,2013-04-12 23:55:00,
2013-04-12 20:00:00,57.6,42.0,29.77,West,269,9.0,13.0,56,0.00,,---,1.40,0.00,VWS V14.01,2013-04-13 00:00:00,
2013-04-12 20:05:00,57.1,42.0,29.77,NW,306,5.0,7.0,57,0.00,,---,1.40,0.00,VWS V14.01,2013-04-13 00:05:00,
2013-04-12 20:10:00,56.8,41.8,29.77,WNW,284,4.0,9.0,57,0.00,,---,1.40,0.00,VWS V14.01,2013-04-13 00:10:00,
2013-04-12 20:16:00,56.5,41.9,29.77,WNW,299,5.0,9.0,58,0.00,,---,1.40,0.00,VWS V14.01,2013-04-13 00:16:00,
2013-04-12 20:21:00,56.4,42.3,29.78,WNW,297,2.0,9.0,59,0.00,,---,1.40,0.00,VWS V14.01,2013-04-13 00:21:00,
2013-04-12 20:26:00,56.2,42.1,29.78,West,280,2.0,9.0,59,0.00,,---,1.40,0.00,VWS V14.01,2013-04-13 00:26:00,
2013-04-12 20:30:00,55.9,42.2,29.78,WNW,284,0.0,10.0,60,0.00,,---,1.40,0.00,VWS V14.01,2013-04-13 00:30:00,
2013-04-12 20:31:00,55.9,42.2,29.78,NW,309,1.0,10.0,60,0.00,,---,1.40,0.00,VWS V14.01,2013-04-13 00:31:00,
2013-04-12 20:36:00,55.7,42.0,29.78,West,277,3.0,6.0,60,0.00,,---,1.40,0.00,VWS V14.01,2013-04-13 00:36:00,
2013-04-12 20:41:00,55.5,41.9,29.79,WSW,251,4.0,9.0,60,0.00,,---,1.40,0.00,VWS V14.01,2013-04-13 00:41:00,
2013-04-12 20:46:00,55.3,41.7,29.79,WNW,302,3.0,9.0,60,0.00,,---,1.40,0.00,VWS V14.01,2013-04-13 00:46:00,
2013-04-12 20:51:00,55.1,41.5,29.79,WSW,258,8.0,9.0,60,0.00,,---,1.40,0.00,VWS V14.01,2013-04-13 00:51:00,
2013-04-12 20:56:00,54.9,41.7,29.79,WNW,287,5.0,10.0,61,0.00,,---,1.40,0.00,VWS V14.01,2013-04-13 00:56:00,
2013-04-12 21:00:00,54.7,41.5,29.80,West,275,3.0,11.0,61,0.00,,---,1.40,0.00,VWS V14.01,2013-04-13 01:00:00,
2013-04-12 21:01:00,54.7,41.5,29.79,West,261,11.0,11.0,61,0.00,,---,1.40,0.00,VWS V14.01,2013-04-13 01:01:00,
2013-04-12 21:06:00,54.6,41.4,29.80,SW,232,10.0,11.0,61,0.00,,---,1.40,0.00,VWS V14.01,2013-04-13 01:06:00,
2013-04-12 21:12:00,54.5,41.3,29.80,WNW,300,0.0,12.0,61,0.00,,---,1.40,0.00,VWS V14.01,2013-04-13 01:12:00,
2013-04-12 21:17:00,54.4,41.7,29.80,WSW,257,6.0,12.0,62,0.00,,---,1.40,0.00,VWS V14.01,2013-04-13 01:17:00,
2013-04-12 21:22:00,54.2,41.5,29.81,WSW,257,3.0,12.0,62,0.00,,---,1.40,0.00,VWS V14.01,2013-04-13 01:22:00,
2013-04-12 21:27:00,54.1,41.4,29.81,WNW,292,2.0,12.0,62,0.00,,---,1.40,0.00,VWS V14.01,2013-04-13 01:27:00,
2013-04-12 21:30:00,54.0,41.7,29.82,West,268,1.0,12.0,63,0.00,,---,1.40,0.00,VWS V14.01,2013-04-13 01:30:00,
2013-04-12 21:32:00,54.0,41.7,29.82,WNW,299,5.0,12.0,63,0.00,,---,1.40,0.00,VWS V14.01,2013-04-13 01:32:00,
2013-04-12 21:37:00,53.8,41.5,29.82,West,259,4.0,6.0,63,0.00,,---,1.40,0.00,VWS V14.01,2013-04-13 01:37:00,
2013-04-12 21:42:00,53.7,41.4,29.83,West,269,0.0,6.0,63,0.00,,---,1.40,0.00,VWS V14.01,2013-04-13 01:42:00,
2013-04-12 21:47:00,53.6,41.3,29.83,West,259,4.0,6.0,63,0.00,,---,1.40,0.00,VWS V14.01,2013-04-13 01:47:00,
2013-04-12 21:52:00,53.5,41.2,29.83,West,267,2.0,9.0,63,0.00,,---,1.40,0.00,VWS V14.01,2013-04-13 01:52:00,
2013-04-12 21:57:00,53.5,41.2,29.83,West,263,4.0,9.0,63,0.00,,---,1.40,0.00,VWS V14.01,2013-04-13 01:57:00,
2013-04-12 22:00:00,53.4,41.1,29.84,NW,307,0.0,9.0,63,0.00,,---,1.40,0.00,VWS V14.01,2013-04-13 02:00:00,
2013-04-12 22:02:00,53.4,41.1,29.84,NW,307,0.0,9.0,63,0.00,,---,1.40,0.00,VWS V14.01,2013-04-13 02:02:00,
2013-04-12 22:07:00,53.3,41.0,29.84,West,273,0.0,7.0,63,0.00,,---,1.40,0.00,VWS V14.01,2013-04-13 02:07:00,
2013-04-12 22:13:00,53.2,41.0,29.84,West,264,0.0,9.0,63,0.00,,---,1.40,0.00,VWS V14.01,2013-04-13 02:13:00,
2013-04-12 22:18:00,53.0,40.8,29.84,West,267,4.0,9.0,63,0.00,,---,1.40,0.00,VWS V14.01,2013-04-13 02:18:00,
2013-04-12 22:23:00,52.9,40.2,29.85,West,270,0.0,9.0,62,0.00,,---,1.40,0.00,VWS V14.01,2013-04-13 02:23:00,
2013-04-12 22:28:00,52.8,40.2,29.85,WNW,284,0.0,9.0,62,0.00,,---,1.40,0.00,VWS V14.01,2013-04-13 02:28:00,
2013-04-12 22:30:00,52.8,39.7,29.86,West,260,7.0,11.0,61,0.00,,---,1.40,0.00,VWS V14.01,2013-04-13 02:30:00,
2013-04-12 22:33:00,52.8,39.7,29.85,SW,216,2.0,7.0,61,0.00,,---,1.40,0.00,VWS V14.01,2013-04-13 02:33:00,
2013-04-12 22:38:00,52.8,39.7,29.86,WSW,251,6.0,12.0,61,0.00,,---,1.40,0.00,VWS V14.01,2013-04-13 02:38:00,
2013-04-12 22:43:00,52.9,39.4,29.87,West,263,7.0,12.0,60,0.00,,---,1.40,0.00,VWS V14.01,2013-04-13 02:43:00,
2013-04-12 22:48:00,52.8,39.3,29.87,NW,321,3.0,14.0,60,0.00,,---,1.40,0.00,VWS V14.01,2013-04-13 02:48:00,
2013-04-12 22:53:00,52.8,39.3,29.87,West,263,7.0,14.0,60,0.00,,---,1.40,0.00,VWS V14.01,2013-04-13 02:53:00,
2013-04-12 22:58:00,52.7,39.2,29.87,SW,229,4.0,14.0,60,0.00,,---,1.40,0.00,VWS V14.01,2013-04-13 02:58:00,
2013-04-12 23:00:00,52.6,39.1,29.87,WSW,240,4.0,14.0,60,0.00,,---,1.40,0.00,VWS V14.01,2013-04-13 03:00:00,
2013-04-12 23:03:00,52.5,39.0,29.87,WSW,242,5.0,7.0,60,0.00,,---,1.40,0.00,VWS V14.01,2013-04-13 03:03:00,
2013-04-12 23:08:00,52.5,39.0,29.87,West,280,0.0,7.0,60,0.00,,---,1.40,0.00,VWS V14.01,2013-04-13 03:08:00,
2013-04-12 23:13:00,52.4,38.9,29.87,West,280,0.0,7.0,60,0.00,,---,1.40,0.00,VWS V14.01,2013-04-13 03:13:00,
2013-04-12 23:18:00,52.2,38.8,29.88,NW,307,1.0,7.0,60,0.00,,---,1.40,0.00,VWS V14.01,2013-04-13 03:18:00,
2013-04-12 23:23:00,52.0,38.6,29.88,NW,309,0.0,7.0,60,0.00,,---,1.40,0.00,VWS V14.01,2013-04-13 03:23:00,
2013-04-12 23:28:00,51.9,38.0,29.88,WNW,286,6.0,10.0,59,0.00,,---,1.40,0.00,VWS V14.01,2013-04-13 03:28:00,
2013-04-12 23:30:00,51.7,37.8,29.87,WNW,283,6.0,10.0,59,0.00,,---,1.40,0.00,VWS V14.01,2013-04-13 03:30:00,
2013-04-12 23:33:00,51.7,37.4,29.88,WNW,293,3.0,6.0,58,0.00,,---,1.40,0.00,VWS V14.01,2013-04-13 03:33:00,
2013-04-12 23:38:00,51.6,37.8,29.87,West,275,2.0,7.0,59,0.00,,---,1.40,0.00,VWS V14.01,2013-04-13 03:38:00,
2013-04-12 23:43:00,51.4,37.1,29.87,WNW,290,6.0,7.0,58,0.00,,---,1.40,0.00,VWS V14.01,2013-04-13 03:43:00,
2013-04-12 23:49:00,51.3,37.0,29.87,NW,309,3.0,8.0,58,0.00,,---,1.40,0.00,VWS V14.01,2013-04-13 03:49:00,
2013-04-12 23:54:00,51.1,36.8,29.87,NW,308,0.0,8.0,58,0.00,,---,1.40,0.00,VWS V14.01,2013-04-13 03:54:00,
2013-04-12 23:59:00,51.0,36.8,29.87,WNW,287,6.0,9.0,58,0.00,,---,1.40,0.00,VWS V14.01,2013-04-13 03:59:00,